CAPE
1 0 0 0 1 2 1 0 0 0 0 0 0 0 0 0 0 1 0 0 0 1 0 0 0 0 0 0 0 0 0 0 0 0 0 0 0 0 0 0 0 0 0 0
0 0 0 0 1 3 3 2 1 2 0 0 0 0 0 0 0 0 1 0 0 0 0 0 0 0 0 0 0 0 0 0 0 0 0 0 0 0 0 0 0 0 0 0
0 0 0 0 1 2 3 1 1 0 0 0 0 0 0 0 0 0 0 0 0 0 0 0 0 0 0 0 0 0 0 0 0 0 0 0 0 0 0 0 0 0 0 0
0 0 0 0 0 0 1 1 0 0 0 0 0 0 0 0 0 3 1 0 0 0 0 0 0 0 0 0 0 0 0 0 0 0 0 0 0 0 0 0 0 0 0 0
0 1 0 0 0 0 0 0 0 0 0 0 0 0 1 0 1 0 0 0 0 0 0 0 0 0 0 0 0 0 0 0 0 0 0 0 0 0 0 0 0 0 0 0
2 1 0 0 0 0 0 0 0 0 0 0 0 0 0 0 0 0 0 0 0 0 0 0 0 0 0 0 0 0 0 0 0 0 0 0 0 0 0 0 0 0 0 0
0 0 0 0 0 0 0 0 0 0 0 0 0 0 0 1 0 0 0 0 0 0 0 0 0 0 0 0 0 0 0 0 0 0 0 0 0 0 0 0 0 0 0 0
1 0 0 0 0 0 0 0 0 0 0 0 0 0 0 0 0 0 0 0 0 0 0 0 0 0 0 0 0 0 0 0 0 0 0 0 0 0 0 0 0 0 0 0
0 0 0 0 0 0 0 0 0 0 0 0 0 0 0 0 0 0 0 0 0 0 0 0 0 0 0 0 0 0 0 0 0 0 0 0 0 0 0 0 0 0 0 0
0 0 0 0 0 0 0 0 0 0 0 0 0 0 0 0 0 0 0 0 0 0 0 0 0 0 0 0 0 0 0 0 0 0 0 0 0 0 0 0 0 0 0 0
0 0 0 0 0 0 0 0 0 0 0 0 0 0 0 0 0 0 0 0 0 0 0 0 0 0 0 0 0 0 0 0 0 0 0 0 0 0 0 0 0 0 0 0
0 0 0 0 0 0 0 0 0 0 0 0 0 0 0 0 0 0 0 0 0 0 0 0 0 0 0 0 0 0 0 0 0 0 0 0 0 0 0 0 0 0 0 0
0 0 0 0 0 0 0 0 0 0 0 0 0 0 0 0 0 0 0 0 0 0 0 0 0 0 0 0 0 0 0 0 0 0 0 0 0 0 0 0 0 0 0 0
0 0 0 0 0 0 0 0 0 0 0 0 0 0 0 0 0 0 0 0 0 0 0 0 0 0 0 0 0 0 0 0 0 0 0 0 0 0 0 0 0 0 0 0
0 0 0 0 0 0 0 0 0 0 0 0 0 0 0 0 0 0 0 0 0 0 0 0 0 0 0 0 0 0 0 0 0 0 0 0 0 0 0 0 0 0 0 0
0 0 0 0 0 0 0 0 0 0 0 0 0 0 0 0 0 0 0 0 0 0 0 0 0 0 0 0 0 0 0 0 0 0 0 0 0 0 0 0 0 0 0 0
0 0 0 0 0 0 0 0 0 0 0 0 0 0 0 0 0 0 0 0 0 0 0 0 0 0 0 0 0 0 0 0 0 0 0 0 0 0 0 0 0 0 0 0
0 0 0 0 0 0 0 0 0 0 0 0 0 0 0 0 0 0 0 0 0 0 0 0 0 0 0 0 0 0 0 0 0 0 0 0 0 0 0 0 0 0 0 0
0 0 0 0 0 0 0 0 0 0 0 0 0 0 0 0 0 0 0 0 0 0 0 0 0 0 0 0 0 0 0 0 0 0 0 0 0 0 0 0 0 0 0 0
0 0 0 0 0 0 0 0 0 0 0 0 0 0 0 0 0 0 0 0 0 0 0 0 0 0 0 0 0 0 0 0 0 0 0 0 0 0 0 0 0 0 0 0
0 0 0 0 0 0 0 0 0 0 0 0 0 0 0 0 0 0 0 0 0 0 0 0 0 0 0 0 0 0 0 0 0 0 0 0 0 0 0 0 0 0 0 0
0 0 0 0 0 0 0 0 0 0 0 0 0 0 0 0 0 0 0 0 0 0 0 0 0 0 0 0 0 0 0 0 0 0 0 0 0 0 0 0 0 0 0 0
0 0 0 0 0 0 0 0 0 0 0 0 0 0 0 0 0 0 0 0 0 0 0 0 0 0 0 0 0 0 0 0 0 0 0 0 0 0 0 0 0 0 0 0
0 0 0 0 0 0 0 0 0 0 0 0 0 0 0 0 0 0 0 0 0 0 0 0 0 0 0 0 0 0 0 0 0 0 0 0 0 0 0 0 0 0 0 0
0 0 0 0 0 0 0 0 0 0 0 0 0 0 0 0 0 0 0 0 0 0 0 0 0 0 0 0 0 0 0 0 0 0 0 0 0 0 0 0 0 0 0 0
0 0 0 0 0 0 0 0 0 0 0 0 0 0 0 0 0 0 0 0 0 0 0 0 0 0 0 0 0 0 0 0 0 0 0 0 0 0 0 0 0 0 0 0
0 0 0 0 0 0 0 0 0 0 0 0 0 0 0 0 0 0 0 0 0 0 0 0 0 0 0 0 0 0 0 0 0 0 0 0 0 0 0 0 0 0 0 0
CIN
0 0 0 0 0 0 0 0 0 0 0 0 0 0 0 0 0 -7 0 0 -0 -0 -0 0 0 0 0 0 0 0 0 0 0 0 0 0 0 0 0 0 0 0 0 0
0 0 0 0 0 0 0 0 0 0 0 0 0 0 0 0 0 0 -2 0 0 0 0 0 0 0 0 0 0 0 0 0 0 0 0 0 0 0 0 0 0 0 0 0
0 0 -0 -0 0 0 0 0 -0 0 0 0 0 0 0 -0 -0 -0 0 0 0 0 0 0 0 0 0 0 0 0 0 0 0 0 0 0 0 0 0 0 0 0 0 0
0 0 0 0 0 -0 0 0 0 0 0 0 0 0 0 0 0 0 0 0 0 0 0 0 0 0 0 0 0 0 0 0 0 0 0 0 0 0 0 0 0 0 0 0
0 -1 0 0 0 0 0 -0 0 0 0 0 0 0 0 0 -0 0 0 0 0 0 0 0 0 0 0 0 0 0 0 0 0 0 0 0 0 0 0 0 0 0 0 0
-1 0 0 0 0 0 0 -0 0 0 0 0 0 0 0 0 0 0 0 0 0 0 0 0 0 0 0 0 0 0 0 0 0 0 0 0 0 0 0 0 0 0 0 0
0 -0 0 0 0 0 0 0 0 0 0 0 0 0 0 0 0 0 0 0 0 0 0 0 0 0 0 0 0 0 0 0 0 0 0 0 0 0 0 0 0 0 0 0
0 -0 0 0 0 0 0 0 0 0 0 0 0 0 0 0 0 0 0 0 0 0 0 0 0 0 0 0 0 0 0 0 0 0 0 0 0 0 0 0 0 0 0 0
0 0 0 0 0 0 0 0 0 0 0 0 0 0 0 0 0 0 0 0 0 0 0 0 0 0 0 0 0 0 0 0 0 0 0 0 0 0 0 0 0 0 0 0
0 0 0 0 0 0 0 0 0 0 0 0 0 0 0 0 0 0 0 0 0 0 0 0 0 0 0 0 0 0 0 0 0 0 0 0 0 0 0 0 0 0 0 0
0 0 0 0 0 0 0 0 0 0 0 0 0 0 0 0 0 0 0 0 0 0 0 0 0 0 0 0 0 0 0 0 0 0 0 0 0 0 0 0 0 0 0 0
0 0 0 0 0 0 0 0 0 0 0 0 0 0 0 0 0 0 0 0 0 0 0 0 0 0 0 0 0 0 0 0 0 0 0 0 0 0 0 0 0 0 0 0
0 0 0 0 0 0 0 0 0 0 0 0 0 0 0 0 0 0 0 0 0 0 0 0 0 0 0 0 0 0 0 0 0 0 0 0 0 0 0 0 0 0 0 0
0 0 0 0 0 0 0 0 0 0 0 0 0 0 0 0 0 0 0 0 0 0 0 0 0 0 0 0 0 0 0 0 0 0 0 0 0 0 0 0 0 0 0 0
0 0 0 0 0 0 0 0 0 0 0 0 0 0 0 0 0 0 0 0 0 0 0 0 0 0 0 0 0 0 0 0 0 0 0 0 0 0 0 0 0 0 0 0
0 0 0 0 0 0 0 0 0 0 0 0 0 0 0 0 0 0 0 0 0 0 0 0 0 0 0 0 0 0 0 0 0 0 0 0 0 0 0 0 0 0 0 0
0 0 0 0 0 0 0 0 0 0 0 0 0 0 0 0 0 0 0 0 0 0 0 0 0 0 0 0 0 0 0 0 0 0 0 0 0 0 0 0 0 0 0 0
0 0 0 0 0 0 0 0 0 0 0 0 0 0 0 0 0 0 0 0 0 0 0 0 0 0 0 0 0 0 0 0 0 0 0 0 0 0 0 0 0 0 0 0
0 0 0 0 0 0 0 0 0 0 0 0 0 0 0 0 0 0 0 0 0 0 0 0 0 0 0 0 0 0 0 0 0 0 0 0 0 0 0 0 0 0 0 0
0 0 0 0 0 0 0 0 0 0 0 0 0 0 0 0 0 0 0 0 0 0 0 0 0 0 0 0 0 0 0 0 0 0 0 0 0 0 0 0 0 0 0 0
0 0 0 0 0 0 0 0 0 0 0 0 0 0 0 0 0 0 0 0 0 0 0 0 0 0 0 0 0 0 0 0 0 0 0 0 0 0 0 0 0 0 0 0
0 0 0 0 0 0 0 0 0 0 0 0 0 0 0 0 0 0 0 0 0 0 0 0 0 0 0 0 0 0 0 0 0 0 0 0 0 0 0 0 0 0 0 0
0 0 0 0 0 0 0 0 0 0 0 0 0 0 0 0 0 0 0 0 0 0 0 0 0 0 0 0 0 0 0 0 0 0 0 0 0 0 0 0 0 0 0 0
0 0 0 0 0 0 0 0 0 0 0 0 0 0 0 0 0 0 0 0 0 0 0 0 0 0 0 0 0 0 0 0 0 0 0 0 0 0 0 0 0 0 0 0
0 0 0 0 0 0 0 0 0 0 0 0 0 0 0 0 0 0 0 0 0 0 0 0 0 0 0 0 0 0 0 0 0 0 0 0 0 0 0 0 0 0 0 0
0 0 0 0 0 0 0 0 0 0 0 0 0 0 0 0 0 0 0 0 0 0 0 0 0 0 0 0 0 0 0 0 0 0 0 0 0 0 0 0 0 0 0 0
0 0 0 0 0 0 0 0 0 0 0 0 0 0 0 0 0 0 0 0 0 0 0 0 0 0 0 0 0 0 0 0 0 0 0 0 0 0 0 0 0 0 0 0
Wind_Speed
26 24 24 20 14 17 13 16 13 16 10 8 11 14 26 32 31 26 27 25 26 26 22 18 17 17 16 15 14 12 10 8 5 4 2 1 3 5 8 11 14 17 20 22
27 23 18 12 10 10 7 5 5 10 13 13 14 14 14 17 23 22 24 25 25 24 20 16 16 16 16 14 13 10 9 6 4 2 0 3 5 7 10 13 16 19 21 24
25 27 25 12 13 5 8 8 8 9 9 10 12 13 14 18 20 22 27 27 24 21 16 14 15 16 15 13 11 9 6 4 2 0 2 4 7 9 12 15 18 20 23 25
24 20 16 24 22 6 8 10 11 10 12 14 12 12 13 14 18 24 29 30 24 17 14 14 13 13 13 10 9 7 4 2 0 1 3 6 9 12 14 17 19 22 24 26
20 13 10 16 24 7 12 16 15 15 13 13 11 13 13 9 15 23 26 19 12 12 11 12 12 12 11 8 6 4 3 1 1 3 5 8 11 13 16 18 20 23 25 27
19 19 14 19 22 12 13 13 3 14 12 12 12 20 17 10 22 6 6 8 10 11 11 11 10 10 10 8 6 4 2 2 4 6 7 9 11 14 17 20 22 24 27 28
17 13 9 7 6 16 9 10 8 11 13 10 8 12 13 14 8 3 12 9 10 12 13 12 11 10 9 7 4 4 5 6 7 8 9 11 13 16 18 21 24 27 29 29
17 13 10 13 11 11 11 10 13 13 15 17 6 5 6 15 20 21 19 11 11 9 8 7 7 7 6 7 9 8 8 8 8 9 11 13 15 18 21 24 26 28 30 31
17 13 10 9 7 10 9 16 17 18 19 23 12 14 5 17 15 17 14 9 15 17 15 14 11 12 13 11 10 9 9 9 9 11 13 16 18 21 23 25 28 30 32 34
10 11 8 10 9 9 12 20 19 19 23 23 11 9 17 15 12 11 12 15 14 14 13 13 12 12 12 11 11 10 10 10 11 13 15 17 20 22 24 27 29 31 33 35
7 10 1 17 16 12 18 18 16 13 10 4 8 5 7 9 11 12 12 15 15 13 12 12 13 13 13 13 12 11 11 12 13 15 17 19 21 23 25 26 27 31 33 35
8 14 21 20 17 14 15 15 12 14 11 8 10 10 8 8 10 11 12 12 12 13 13 14 14 14 13 12 11 11 12 13 15 16 18 21 23 25 24 25 27 29 32 33
5 15 19 16 15 14 12 11 11 12 13 13 10 12 11 11 11 12 13 14 13 13 14 15 15 14 13 12 12 12 13 14 16 18 21 23 25 26 29 28 27 29 32 35
6 10 15 11 13 11 9 10 14 10 11 11 13 13 14 13 14 14 13 12 15 15 14 14 14 13 13 13 13 14 15 17 18 20 21 23 25 27 29 32 35 35 34 35
5 10 16 8 7 8 8 8 11 11 12 10 14 17 17 16 15 14 13 14 13 13 13 14 14 13 13 13 14 15 17 18 19 20 22 24 26 28 30 32 34 36 36 35
10 10 7 6 5 7 8 7 7 9 12 14 16 18 17 15 14 13 13 13 12 12 12 13 14 13 14 14 15 17 18 19 20 22 24 26 28 30 32 33 35 36 37 38
8 7 5 4 5 7 8 7 6 10 11 13 15 17 18 16 15 13 12 11 13 13 13 13 13 14 14 15 16 17 19 20 22 23 26 28 29 31 32 34 35 36 37 36
14 6 4 5 8 8 9 9 9 10 12 14 14 15 15 14 14 12 12 13 13 13 13 14 14 14 15 16 17 19 20 21 23 25 27 28 30 32 32 33 35 36 36 35
10 7 5 9 9 9 11 11 9 10 12 15 14 12 12 11 11 11 12 11 12 12 12 13 14 15 16 17 18 19 21 23 25 26 28 30 31 32 33 33 34 35 35 34
9 6 6 7 9 10 9 8 10 10 9 9 9 10 10 10 10 11 11 11 11 11 12 13 14 16 17 18 19 20 22 24 26 28 30 31 32 33 33 33 34 34 32 30
7 5 3 4 5 6 7 10 10 10 9 9 9 9 10 10 9 10 10 10 12 12 13 14 15 16 17 18 20 22 24 26 28 30 31 32 32 32 33 33 33 31 29 27
6 4 3 5 6 7 7 8 8 8 8 8 8 9 10 10 10 10 10 10 11 12 13 14 15 16 18 20 22 24 26 28 29 30 31 32 32 33 33 33 32 28 26 25
6 2 3 5 7 7 6 6 7 8 8 9 10 10 10 9 9 9 9 10 11 12 14 15 16 18 20 22 24 25 27 29 30 30 31 31 31 32 32 31 28 26 23 21
4 3 1 3 6 7 8 7 7 6 7 8 8 9 9 8 9 10 11 11 12 13 14 15 17 19 22 23 25 27 28 29 30 31 31 31 32 31 31 28 25 22 6 21
4 1 3 5 6 6 8 8 7 6 6 7 7 7 7 7 8 9 10 11 12 13 15 17 19 21 23 25 26 28 29 30 31 31 32 32 32 31 28 25 21 9 19 18
2 1 1 2 5 6 7 7 7 6 7 7 6 6 7 8 9 10 10 11 13 14 16 18 20 22 24 25 26 28 29 31 31 32 32 32 31 27 25 20 10 17 16 16
5 1 2 3 4 5 6 6 6 6 5 5 5 5 6 7 8 9 10 12 14 15 17 20 22 23 24 26 27 29 30 30 31 32 31 30 25 23 18 12 15 16 16 15
Wind_Direction
238 242 252 258 275 281 279 271 272 274 280 255 236 226 238 262 271 273 250 236 223 218 217 210 200 194 191 189 189 185 180 180 173 167 197 287 325 336 335 334 335 336 335 336
253 253 248 254 271 293 300 346 245 245 238 236 231 235 190 190 253 241 226 217 214 213 211 204 191 182 179 181 181 177 175 170 160 154 279 324 336 333 334 335 336 335 336 335
257 289 275 37 37 294 36 64 97 123 157 189 200 219 203 214 222 218 200 202 207 208 204 190 181 174 173 172 170 171 164 157 155 137 334 334 334 335 335 335 336 336 337 337
259 270 15 341 15 72 84 87 142 156 172 194 211 221 232 222 200 181 178 182 195 196 184 178 171 167 157 162 157 154 154 148 108 343 338 338 337 336 337 338 338 338 338 338
280 229 216 46 27 254 99 89 92 182 187 193 193 219 216 200 182 173 174 184 175 171 158 148 148 145 143 146 148 146 140 112 28 357 347 343 340 341 341 341 341 340 340 339
299 311 64 35 28 94 121 120 221 125 184 190 200 135 154 197 155 161 147 143 125 124 124 129 137 133 130 129 127 122 100 41 14 7 357 351 349 346 346 344 342 342 340 340
182 170 168 151 231 82 228 186 222 196 172 223 205 184 190 182 187 105 89 113 113 109 110 114 118 121 118 115 108 82 68 50 26 13 6 360 353 350 348 345 343 340 340 341
151 135 108 87 118 261 244 204 222 182 170 146 288 349 17 61 78 83 87 99 101 108 113 114 114 117 106 89 82 74 60 44 28 15 3 0 356 350 346 344 342 342 341 342
145 125 131 89 150 205 154 242 251 230 207 164 73 202 15 75 73 80 80 81 90 96 94 92 90 96 92 83 80 70 55 39 25 15 4 355 351 348 346 345 344 343 342 341
120 98 147 54 70 67 301 288 288 259 225 155 108 80 79 75 73 70 78 88 91 94 93 88 85 83 82 82 76 66 52 38 21 8 1 356 353 351 348 346 345 344 343 342
142 194 196 354 359 29 338 332 331 320 315 13 87 68 58 66 73 77 80 89 93 93 88 85 86 83 80 79 73 57 41 26 15 8 1 357 354 351 349 349 349 345 344 343
39 5 320 306 347 19 331 356 339 31 32 32 69 81 78 69 71 80 82 85 85 86 87 86 84 80 76 70 61 47 31 19 12 5 360 355 352 350 353 352 351 350 348 345
55 343 318 344 345 26 349 334 358 30 51 64 56 73 75 77 74 80 80 85 87 86 84 85 81 72 64 55 45 32 25 18 9 2 358 354 352 351 349 351 352 350 349 348
110 17 337 356 333 11 17 14 37 32 44 54 69 71 77 79 80 80 81 82 86 83 77 75 70 61 53 45 37 28 19 12 5 1 358 356 354 353 351 348 346 347 349 348
344 337 323 1 359 20 359 27 45 51 60 60 71 82 84 84 82 81 82 83 78 72 68 67 63 53 47 41 32 21 13 9 6 4 1 358 355 353 351 349 348 347 347 349
340 333 336 343 1 32 66 49 41 60 78 86 86 87 84 81 81 80 78 78 75 66 60 60 55 50 44 35 24 17 13 10 7 2 360 356 354 352 351 349 349 348 348 348
338 334 357 49 35 74 84 84 65 89 91 90 91 91 90 86 81 74 65 59 61 61 59 56 50 45 34 27 21 15 11 8 6 2 359 356 354 352 351 350 349 348 348 350
295 17 350 88 104 91 91 92 98 97 98 97 93 92 90 88 86 78 71 69 64 54 48 48 44 37 29 23 17 13 11 7 4 0 357 355 353 352 351 351 350 349 349 350
313 329 48 98 110 100 102 101 101 100 101 103 98 87 81 78 75 72 72 65 58 52 44 43 40 32 25 19 16 14 11 6 2 359 356 354 353 352 352 351 351 351 351 352
310 358 61 90 96 112 111 106 106 104 99 94 84 81 76 73 74 72 65 53 42 47 50 43 34 26 20 18 16 13 7 3 359 357 355 354 353 352 352 352 352 352 353 356
335 354 43 96 104 108 117 119 117 112 105 96 93 85 80 75 71 70 63 49 44 49 42 36 26 22 19 18 13 8 3 0 358 356 354 353 353 353 352 352 352 352 355 358
345 16 63 100 111 114 117 118 114 110 104 93 88 85 85 81 74 53 36 49 53 47 35 26 24 24 21 13 8 4 2 359 357 356 355 354 353 352 352 352 352 354 356 359
327 5 83 111 121 121 116 118 118 114 107 106 102 97 90 83 72 64 47 43 44 37 30 28 28 21 13 8 5 2 360 358 357 356 355 354 353 352 351 351 353 355 359 292
343 347 38 106 119 123 124 116 111 98 98 95 90 93 92 79 41 28 50 51 46 37 32 28 20 13 9 6 3 0 359 358 357 356 355 354 353 352 352 353 355 359 277 268
326 346 112 129 135 136 129 125 114 104 97 88 87 77 64 43 32 56 49 41 42 32 24 18 13 9 6 3 1 0 359 358 357 356 355 353 353 352 354 357 3 244 261 254
329 292 152 159 146 143 139 133 127 118 112 100 79 62 44 41 54 47 38 36 29 23 13 13 10 7 5 3 2 1 359 358 357 356 355 354 353 356 0 9 251 255 249 246
307 281 185 160 159 150 150 144 134 130 121 106 88 59 54 48 41 33 28 20 16 12 9 7 6 5 4 3 1 0 359 358 358 357 356 357 2 6 18 250 251 248 245 239